Retour au catalogue

DELTA 1 DEB

ActifSSO
NORAD 7058·DEBRIS·🇺🇸 United States

Lancé Nov 6, 1973 depuis Vandenberg Space Force Base

Loading…

Prochains Passages (prochaines 24 heures)

TLE

FraisSource: Space-Track

Époque: Sep 14, 2026, 05:22 UTC

1 07058U 73086BA  26257.22413523  .00000127  00000-0  10663-2 0  9996
2 07058 101.8516 245.7643 0001068 306.4679 122.0006 12.54932796410335

Suivez DELTA 1 DEB en temps réel avec AllMySat

Download on the App Store